Flag for Romania Weather past 2 weeks in Brăila, Romania

47 °F

Light rain. Overcast.

Feels Like: 44 °F
Forecast: 38 / 46 °F
Wind: 6 mph from East

Location: Tulcea

Current Time: Nov 28, 2015 at 3:38:24 AM

Latest Report: Nov 28, 2015 at 2:00 AM

Visibility: 0 mi

Pressure: 29.95 "Hg

Humidity: 100%

Dew point: 47 °F

Location of BrăilaLocation

Historic Weather in Brăila — Graph


Brăila temperature yesterday

Maximum temperature yesterday: 45 °F (at 3:00 AM)
Minimum temperature yesterday: 39 °F (at 10:00 AM)
Average temperature yesterday: 41 °F

Past Weeks' High & Low Weather Summary

High75 °F (Nov 22, 12:00 PM)100% (Nov 23, 6:00 AM)30.39 "Hg (Nov 23, 6:00 AM)
Low36 °F (Nov 17, 3:00 AM)37% (Nov 15, 1:00 PM)29.32 "Hg (Nov 22, 4:00 AM)
Average52 °F74%29.95 "Hg
* Reported Nov 13 3:00 AM — Nov 28 2:00 AM, Brăila, Weather by CustomWeather, © 2015

Note: Actual official high and low records may vary slightly from our data, if they occured in-between our weather recording intervals... More about our weather records


Brăila weather history for previous 24 hours

Time TempWeatherWind HumidityBarometerVisibility
2:00 AM
Sat, Nov 28
47 °FLight rain. Overcast.6 mph100%29.95 "Hg1 mi
12:00 AM42 °FLight rain. Overcast.2 mph100%29.99 "Hg1 mi
11:00 PM
Fri, Nov 27
42 °FLight rain. Overcast.3 mph100%30.01 "Hg1 mi
10:00 PM41 °FLight rain. Overcast.3 mph100%30.03 "Hg1 mi
9:00 PM41 °FLight rain. Overcast.5 mph100%30.03 "Hg1 mi
8:00 PM41 °FLight rain. Overcast.3 mph100%30.03 "Hg1 mi
6:00 PM41 °FLight rain. Overcast.2 mph100%30.03 "Hg1 mi
5:00 PM40 °FLight rain. Overcast.3 mph100%30.02 "Hg1 mi
4:00 PM40 °FLight rain. Overcast.3 mph100%30.03 "Hg1 mi
3:00 PM40 °FLight rain. Overcast.3 mph100%30.01 "Hg1 mi
2:00 PM40 °FLight rain. Overcast.3 mph100%30.01 "Hg1 mi
1:00 PM40 °FLight rain. Overcast.3 mph100%30.01 "Hg1 mi
12:00 PM40 °FFog.3 mph100%30.01 "Hg1 mi
11:00 AM39 °FOvercast.5 mph100%30.01 "Hg1 mi
10:00 AM39 °FDrizzle. Overcast.3 mph100%30.00 "Hg1 mi
8:00 AM39 °FOvercast.5 mph100%29.96 "Hg2 mi
7:00 AM40 °FLight rain. Overcast.3 mph100%29.94 "Hg6 mi
6:00 AM42 °FQuite cool.5 mph100%29.92 "HgN/A
5:00 AM43 °FQuite cool.3 mph100%29.90 "HgN/A
4:00 AM44 °FQuite cool.3 mph100%29.87 "HgN/A
3:00 AM45 °FQuite cool.5 mph100%29.86 "HgN/A
Weather by CustomWeather, © 2015

See weather overviewHow to use our weather pages